TimeEST,TemperatureF,Dew PointF,Humidity,Sea Level PressureIn,VisibilityMPH,Wind Direction,Wind SpeedMPH,Gust SpeedMPH,PrecipitationIn,Events,Conditions,WindDirDegrees,DateUTC
12:53 AM,21.9,19.0,89,30.19,10.0,Calm,Calm,-,N/A,,Clear,0,2012-11-06 05:53:00
1:53 AM,21.9,18.0,85,30.19,10.0,Calm,Calm,-,N/A,,Clear,0,2012-11-06 06:53:00
2:53 AM,21.0,17.1,85,30.19,10.0,Calm,Calm,-,N/A,,Clear,0,2012-11-06 07:53:00
3:53 AM,19.9,17.1,89,30.17,10.0,Calm,Calm,-,N/A,,Clear,0,2012-11-06 08:53:00
4:53 AM,19.9,16.0,85,30.19,10.0,Calm,Calm,-,N/A,,Clear,0,2012-11-06 09:53:00
5:53 AM,19.0,16.0,88,30.20,10.0,Calm,Calm,-,N/A,,Clear,0,2012-11-06 10:53:00
7:53 AM,23.0,19.9,88,30.24,10.0,Calm,Calm,-,N/A,,Clear,0,2012-11-06 12:53:00
8:53 AM,28.0,24.1,85,30.24,10.0,Calm,Calm,-,N/A,,Clear,0,2012-11-06 13:53:00
9:53 AM,35.1,21.0,57,30.23,10.0,Calm,Calm,-,N/A,,Clear,0,2012-11-06 14:53:00
10:53 AM,37.9,18.0,45,30.23,10.0,NNE,5.8,-,N/A,,Clear,30,2012-11-06 15:53:00
11:53 AM,39.0,16.0,39,30.21,10.0,NNW,3.5,-,N/A,,Clear,340,2012-11-06 16:53:00
12:53 PM,41.0,18.0,40,30.19,10.0,NE,5.8,-,N/A,,Clear,50,2012-11-06 17:53:00
1:53 PM,42.1,18.0,38,30.17,10.0,East,4.6,-,N/A,,Clear,90,2012-11-06 18:53:00
2:53 PM,42.1,18.0,38,30.15,10.0,Calm,Calm,-,N/A,,Clear,0,2012-11-06 19:53:00
3:53 PM,41.0,18.0,40,30.15,10.0,NNE,5.8,-,N/A,,Clear,20,2012-11-06 20:53:00
4:53 PM,37.0,18.0,46,30.14,10.0,NNE,4.6,-,N/A,,Clear,30,2012-11-06 21:53:00
5:53 PM,32.0,19.0,59,30.15,10.0,Calm,Calm,-,N/A,,Clear,0,2012-11-06 22:53:00
6:53 PM,28.9,19.9,69,30.14,10.0,Calm,Calm,-,N/A,,Clear,0,2012-11-06 23:53:00
7:53 PM,28.9,19.9,69,30.14,10.0,Calm,Calm,-,N/A,,Clear,0,2012-11-07 00:53:00
8:53 PM,25.0,19.0,78,30.13,10.0,Calm,Calm,-,N/A,,Clear,0,2012-11-07 01:53:00
9:53 PM,26.1,19.0,75,30.12,10.0,Calm,Calm,-,N/A,,Clear,0,2012-11-07 02:53:00
10:53 PM,26.1,19.0,75,30.10,10.0,Calm,Calm,-,N/A,,Clear,0,2012-11-07 03:53:00
11:53 PM,28.0,19.0,69,30.11,10.0,Calm,Calm,-,N/A,,Clear,0,2012-11-07 04:53:00